Weather History for Fryeburg, ME

Change the Weather History Date:

Tuesday, January 15, 2013

  Actual Average Record
Temperature  
Mean Temperature 32 °F -  
Max Temperature 39 °F 24 °F 45 °F (2014)
Min Temperature 24 °F 4 °F -18 °F (2009)
Degree Days  
Heating Degree Days 34    
Moisture  
Dew Point 20 °F    
Average Humidity 66    
Maximum Humidity 88    
Minimum Humidity 43    
Precipitation  
Precipitation 0.00 in - - ()
Sea Level Pressure  
Sea Level Pressure 30.26 in    
Wind  
Wind Speed 1 mph (WSW)    
Max Wind Speed 6 mph    
Max Gust Speed -    
Visibility 10 miles    
Events      
Averages and records for this station are not official NWS values.
T = Trace of Precipitation, MM = Missing Value Source: NWS Daily Summary

Daily Weather History Graph

Daily Weather History Graph

Search for Another Location

Airport:

Trip Planner

Search our weather history database for the weather conditions in past years. The results will help you decide how hot, cold, wet, or windy it might be!

Date:

Astronomy

Jan. 15, 2013 Rise Set
Actual Time 7:15 AM EST 4:31 PM EST
Civil Twilight 6:43 AM EST 5:03 PM EST
Nautical Twilight 6:07 AM EST 5:39 PM EST
Astronomical Twilight 5:32 AM EST 6:14 PM EST
Moon 9:08 AM EST (1/15) 9:30 PM EST (1/15)
Length of Visible Light 10h 20m
Length of Day
9h 16m
Waxing Crescent, 19% of the Moon is Illuminated
Jan 15
Waxing Crescent
Jan 18
First Quarter
Jan 26
Full
Feb 3
Last Quarter
Feb 10
New

Hourly Weather History & Observations

Time (EST) Temp. Windchill Dew Point Humidity Pressure Visibility Wind Dir Wind Speed Gust Speed Precip Events Conditions
12:54 AM 30.9 °F - 24.1 °F 76% 30.25 in 10.0 mi Calm Calm - N/A   Clear
1:54 AM 33.1 °F - 23.0 °F 66% 30.26 in 10.0 mi Calm Calm - N/A   Clear
2:54 AM 32.0 °F 28.7 °F 23.0 °F 69% 30.24 in 10.0 mi NNW 3.5 mph - N/A   Clear
4:54 AM 27.0 °F - 23.0 °F 85% 30.24 in 10.0 mi Calm Calm - N/A   Overcast
5:54 AM 25.0 °F - 21.9 °F 88% 30.25 in 10.0 mi Calm Calm - N/A   Partly Cloudy
6:54 AM 24.1 °F - 21.0 °F 88% 30.27 in 10.0 mi Calm Calm - N/A   Clear
7:54 AM 24.1 °F - 21.0 °F 88% 30.30 in 10.0 mi Calm Calm - N/A   Clear
8:54 AM 30.0 °F - 25.0 °F 82% 30.30 in 10.0 mi Calm Calm - 0.00 in   Clear
9:54 AM 36.0 °F 33.3 °F 23.0 °F 59% 30.30 in 10.0 mi NE 3.5 mph - N/A   Clear
10:54 AM 37.0 °F 34.5 °F 21.9 °F 54% 30.30 in 10.0 mi Variable 3.5 mph - N/A   Clear
11:54 AM 37.9 °F 33.5 °F 19.0 °F 47% 30.26 in 10.0 mi NW 5.8 mph - N/A   Scattered Clouds
12:54 PM 39.0 °F 34.8 °F 19.0 °F 45% 30.24 in 10.0 mi South 5.8 mph - N/A   Partly Cloudy
1:54 PM 39.0 °F 35.7 °F 19.0 °F 45% 30.25 in 10.0 mi SSW 4.6 mph - N/A   Scattered Clouds
2:54 PM 39.9 °F 35.8 °F 19.0 °F 43% 30.25 in 10.0 mi SW 5.8 mph - N/A   Mostly Cloudy
3:54 PM 36.0 °F 32.1 °F 18.0 °F 48% 30.23 in 10.0 mi SW 4.6 mph - N/A   Partly Cloudy
4:54 PM 33.1 °F 27.7 °F 17.1 °F 52% 30.25 in 10.0 mi West 5.8 mph - N/A   Clear
5:54 PM 30.9 °F - 17.1 °F 57% 30.27 in 10.0 mi Calm Calm - N/A   Clear
6:54 PM 27.0 °F - 16.0 °F 63% 30.29 in 10.0 mi Calm Calm - 0.00 in   Clear
7:54 PM 26.1 °F - 17.1 °F 69% 30.27 in 10.0 mi Calm Calm - N/A   Clear
8:54 PM 26.1 °F - 18.0 °F 71% 30.27 in 10.0 mi Calm Calm - N/A   Clear
9:54 PM 27.0 °F - 19.0 °F 72% 30.25 in 10.0 mi Calm Calm - N/A   Clear
10:54 PM 26.1 °F - 19.0 °F 75% 30.25 in 10.0 mi Calm Calm - 0.00 in   Clear
11:54 PM 26.1 °F - 19.0 °F 75% 30.25 in 10.0 mi Calm Calm - N/A   Clear